Tracking 17742 objects as of 25-June-2016
HD Live streaming from Space Station
objects crossing your sky now

ASTRA 1D

Track ASTRA 1D now!
ASTRA 1D is classified as:


NORAD ID: 23331
Int'l Code: 1994-070A
Perigee: 35,855.5 km
Apogee: 35,884.7 km
Inclination: 7.0 °
Period: 1,440.0 minutes
Semi major axis: 42241 km
RCS: 75.2376 m2 (large)
Launch date: November 1, 1994
Source: Luxembourg (LUXE)
Launch site: FRENCH GUIANA (FRGUI)

Primarily backup for Astra 1B and 1C; 18 Ku-band transponders; continental Europe.
Your satellite tracking list
Your tracking list is empty





NASA's NSSDC Master Catalog

Two Line Element Set (TLE):
1 23331U 94070A   16177.12125949 -.00000290  00000-0  00000+0 0  9998
2 23331   7.0080  51.9966 0003462  37.5998 180.4119  1.00269877 79629
Source of the keplerian elements: AFSPC

N2YO: 1043